Home > Weather > Yokosuka > Past weeks

Flag for Japan Weather for the Past 2 Weeks in Yokosuka, Japan

Now
46 °F

Broken clouds.


Feels Like: 43 °F
Forecast: 38 / 44 °F
Wind: 7 mph from Northeast

Location: Tokyo International Airport

Current Time: Feb 6, 2016 at 12:34:24 PM

Latest Report: Feb 6, 2016 at 12:00 PM


Visibility: N/A

Pressure: 29.86 "Hg

Humidity: 66%

Dew point: 36 °F

Location of YokosukaLocation

Historic Weather in Yokosuka — Graph

°F

Yokosuka Temperature Yesterday

Maximum temperature yesterday: 52 °F (at 3:00 PM)
Minimum temperature yesterday: 36 °F (at 7:00 AM)
Average temperature yesterday: 46 °F

High & Low Weather Summary for the Past Weeks

 TemperatureHumidityPressure
High54 °F (Jan 27, 12:30 PM)100% (Jan 30, 2:00 AM)30.33 "Hg (Jan 30, 2:00 AM)
Low28 °F (Jan 25, 5:30 AM)14% (Jan 24, 2:00 PM)29.50 "Hg (Jan 24, 1:30 PM)
Average43 °F57%30.07 "Hg
* Reported Jan 22 11:00 AM — Feb 6 11:00 AM, Yokosuka, Weather by CustomWeather, © 2016

Note: Actual official high and low records may vary slightly from our data, if they occured in-between our weather recording intervals... More about our weather records

Advertising

Yokosuka Weather History for the Previous 24 Hours

 ConditionsComfort  
Time TempWeatherWind HumidityBarometerVisibility
11:00 AM
Sat, Feb 6
46 °FPartly sunny.8 mph71%29.92 "HgN/A
10:00 AM45 °FPartly sunny.7 mph71%29.92 "HgN/A
9:30 AM46 °FBroken clouds.8 mph71%29.92 "HgN/A
9:00 AM46 °FPartly sunny.12 mph71%29.92 "HgN/A
8:30 AM45 °FBroken clouds.14 mph71%29.89 "HgN/A
8:00 AM45 °FPartly sunny.12 mph71%29.89 "HgN/A
7:30 AM43 °FPartly sunny.9 mph76%29.89 "HgN/A
7:00 AM43 °FPartly sunny.8 mph76%29.89 "HgN/A
6:30 AM43 °FPartly cloudy.7 mph71%29.89 "HgN/A
6:00 AM43 °FPartly cloudy.8 mph71%29.89 "HgN/A
5:30 AM45 °FPartly cloudy.10 mph71%29.89 "HgN/A
5:00 AM45 °FPassing clouds.10 mph76%29.89 "HgN/A
4:30 AM45 °FPassing clouds.7 mph76%29.89 "HgN/A
4:00 AM45 °FPartly cloudy.10 mph76%29.89 "HgN/A
3:30 AM45 °FPassing clouds.10 mph76%29.89 "HgN/A
3:00 AM45 °FPassing clouds.8 mph76%29.89 "HgN/A
2:30 AM45 °FPassing clouds.9 mph76%29.89 "HgN/A
2:00 AM45 °FPassing clouds.8 mph76%29.89 "HgN/A
1:30 AM45 °FPassing clouds.9 mph76%29.89 "HgN/A
1:00 AM45 °FPassing clouds.8 mph76%29.89 "HgN/A
12:30 AM45 °FPassing clouds.7 mph81%29.92 "HgN/A
12:00 AM46 °FPassing clouds.9 mph76%29.92 "HgN/A
11:30 PM
Fri, Feb 5
46 °FPassing clouds.9 mph76%29.95 "HgN/A
11:00 PM46 °FPassing clouds.9 mph71%29.95 "HgN/A
10:30 PM46 °FPassing clouds.9 mph71%29.95 "HgN/A
10:00 PM46 °FPassing clouds.14 mph76%29.95 "HgN/A
9:30 PM48 °FPassing clouds.14 mph71%29.95 "HgN/A
9:00 PM48 °FPartly cloudy.10 mph76%29.95 "HgN/A
8:30 PM48 °FPartly cloudy.10 mph71%29.95 "HgN/A
8:00 PM48 °FPassing clouds.13 mph76%29.95 "HgN/A
7:30 PM50 °FPassing clouds.9 mph62%29.95 "HgN/A
7:00 PM50 °FPassing clouds.10 mph58%29.95 "HgN/A
6:30 PM50 °FPassing clouds.12 mph54%29.95 "HgN/A
6:00 PM50 °FPassing clouds.13 mph50%29.95 "HgN/A
5:30 PM50 °FPartly cloudy.12 mph54%29.95 "HgN/A
5:00 PM50 °FPartly sunny.1 mph54%29.95 "HgN/A
4:30 PM50 °FSunny.2 mph50%29.92 "Hg10 mi
4:00 PM52 °FSunny.3 mph50%29.92 "Hg10 mi
3:30 PM52 °FSunny.5 mph50%29.92 "Hg10 mi
3:00 PM52 °FSunny.6 mph47%29.92 "Hg10 mi
2:30 PM50 °FSunny.8 mph54%29.92 "Hg10 mi
1:30 PM50 °FSunny.10 mph50%29.95 "Hg10 mi
1:00 PM50 °FSunny.9 mph54%29.95 "Hg10 mi
12:30 PM50 °FSunny.7 mph50%29.95 "Hg10 mi
Weather by CustomWeather, © 2016

See weather overviewHow to use our weather pages